1998-067US

Last updated on Mon Jan 09 2023 00:02:04 GMT+0000 (Coordinated Universal Time)

1 55125U 98067US 23008.46533979 .00046318 00000+0 77386-3 0 9992 2 55125 51.6423 39.6260 0003481 292.0703 67.9917 15.51450812 1637
UTC large
Height (km)
Speed (km/s)
/
Latitude / Longitude
Inclination (degrees)
Orbital Period (minutes)
Azimuth
Elevation
Range (km)
Doppler Factor

Next 0 passes for location: London (51.5072 / 0.1276)

Sorry there are no passes over London.
1998-067US